TimeCST,TemperatureF,Dew PointF,Humidity,Sea Level PressureIn,VisibilityMPH,Wind Direction,Wind SpeedMPH,Gust SpeedMPH,PrecipitationIn,Events,Conditions,WindDirDegrees,DateUTC
12:15 AM,20.3,15.6,82,30.19,10.0,Calm,Calm,-,N/A,,Clear,0,2013-03-03 06:15:00
12:35 AM,20.3,15.8,83,30.19,10.0,WNW,3.5,-,N/A,,Clear,290,2013-03-03 06:35:00
12:55 AM,20.7,15.1,79,30.19,10.0,Calm,Calm,-,N/A,,Clear,0,2013-03-03 06:55:00
1:15 AM,20.3,14.9,80,30.19,10.0,WNW,3.5,-,N/A,,Clear,290,2013-03-03 07:15:00
1:35 AM,20.3,15.3,81,30.19,10.0,WNW,3.5,-,N/A,,Clear,290,2013-03-03 07:35:00
1:55 AM,20.3,15.4,81,30.18,10.0,WNW,3.5,-,N/A,,Clear,290,2013-03-03 07:55:00
2:15 AM,19.9,15.4,83,30.18,10.0,Calm,Calm,-,N/A,,Clear,0,2013-03-03 08:15:00
2:35 AM,19.4,15.4,85,30.16,10.0,Calm,Calm,-,N/A,,Clear,0,2013-03-03 08:35:00
2:55 AM,19.2,15.8,87,30.16,10.0,Calm,Calm,-,N/A,,Clear,0,2013-03-03 08:55:00
3:15 AM,19.0,16.0,88,30.16,10.0,Calm,Calm,-,N/A,,Clear,0,2013-03-03 09:15:00
3:35 AM,18.5,15.8,89,30.15,10.0,Calm,Calm,-,N/A,,Clear,0,2013-03-03 09:35:00
3:55 AM,18.5,15.8,89,30.15,10.0,Calm,Calm,-,N/A,,Clear,0,2013-03-03 09:55:00
4:15 AM,19.4,15.8,86,30.15,10.0,Calm,Calm,-,N/A,,Clear,0,2013-03-03 10:15:00
4:35 AM,18.5,15.8,89,30.15,10.0,Calm,Calm,-,N/A,,Clear,0,2013-03-03 10:35:00
4:55 AM,17.6,15.3,91,30.16,10.0,Calm,Calm,-,N/A,,Clear,0,2013-03-03 10:55:00
5:15 AM,18.0,15.6,91,30.16,10.0,Calm,Calm,-,N/A,,Clear,0,2013-03-03 11:15:00
5:35 AM,18.1,15.6,90,30.17,10.0,NW,3.5,-,N/A,,Clear,310,2013-03-03 11:35:00
5:55 AM,17.8,15.6,91,30.17,10.0,WNW,3.5,-,N/A,,Clear,300,2013-03-03 11:55:00
6:15 AM,18.1,15.8,91,30.17,10.0,WNW,3.5,-,N/A,,Clear,290,2013-03-03 12:15:00
6:35 AM,18.1,15.8,91,30.17,10.0,Calm,Calm,-,N/A,,Clear,0,2013-03-03 12:35:00
6:55 AM,18.5,16.0,90,30.17,10.0,Calm,Calm,-,N/A,,Clear,0,2013-03-03 12:55:00
7:15 AM,19.9,16.9,88,30.17,10.0,Calm,Calm,-,N/A,,Clear,0,2013-03-03 13:15:00
7:35 AM,20.7,17.4,87,30.17,10.0,Calm,Calm,-,N/A,,Clear,0,2013-03-03 13:35:00
7:55 AM,21.9,18.0,85,30.17,10.0,Calm,Calm,-,N/A,,Clear,0,2013-03-03 13:55:00
8:15 AM,23.0,18.3,82,30.17,10.0,NW,3.5,-,N/A,,Clear,310,2013-03-03 14:15:00
8:35 AM,24.6,19.0,79,30.17,10.0,Calm,Calm,-,N/A,,Clear,0,2013-03-03 14:35:00
8:55 AM,25.3,18.5,75,30.17,10.0,Calm,Calm,-,N/A,,Clear,0,2013-03-03 14:55:00
9:15 AM,27.1,19.4,73,30.17,10.0,Calm,Calm,-,N/A,,Clear,0,2013-03-03 15:15:00
9:35 AM,28.4,18.3,66,30.17,10.0,Calm,Calm,-,N/A,,Clear,0,2013-03-03 15:35:00
9:55 AM,29.8,18.0,61,30.16,10.0,Calm,Calm,-,N/A,,Clear,0,2013-03-03 15:55:00
10:15 AM,30.6,16.7,56,30.16,10.0,Calm,Calm,-,N/A,,Clear,0,2013-03-03 16:15:00
10:35 AM,30.9,16.7,56,30.16,10.0,Calm,Calm,-,N/A,,Clear,0,2013-03-03 16:35:00
10:55 AM,32.2,16.3,52,30.16,10.0,ENE,3.5,-,N/A,,Clear,70,2013-03-03 16:55:00
11:15 AM,32.4,15.3,49,30.15,10.0,Calm,Calm,-,N/A,,Clear,0,2013-03-03 17:15:00
11:35 AM,32.2,16.2,52,30.14,10.0,Calm,Calm,-,N/A,,Clear,0,2013-03-03 17:35:00
11:55 AM,33.4,18.9,55,30.14,10.0,Calm,Calm,-,N/A,,Clear,0,2013-03-03 17:55:00
12:15 PM,32.5,18.0,55,30.14,10.0,Calm,Calm,-,N/A,,Scattered Clouds,0,2013-03-03 18:15:00
12:35 PM,33.1,18.7,56,30.13,10.0,Calm,Calm,-,N/A,,Overcast,0,2013-03-03 18:35:00
12:55 PM,33.1,17.6,53,30.13,10.0,South,3.5,-,N/A,,Mostly Cloudy,180,2013-03-03 18:55:00
1:15 PM,34.0,18.5,53,30.11,10.0,Calm,Calm,-,N/A,,Overcast,0,2013-03-03 19:15:00
1:35 PM,34.2,19.4,55,30.11,10.0,SE,3.5,-,N/A,,Mostly Cloudy,130,2013-03-03 19:35:00
1:55 PM,34.5,19.0,53,30.10,10.0,South,3.5,-,N/A,,Clear,180,2013-03-03 19:55:00
2:15 PM,35.1,20.1,55,30.10,10.0,SSE,6.9,-,N/A,,Clear,160,2013-03-03 20:15:00
2:35 PM,34.9,19.0,52,30.10,10.0,SE,4.6,-,N/A,,Clear,140,2013-03-03 20:35:00
2:55 PM,35.2,18.7,51,30.09,10.0,SSE,3.5,-,N/A,,Clear,150,2013-03-03 20:55:00
3:15 PM,35.6,17.8,48,30.09,10.0,ESE,3.5,-,N/A,,Clear,120,2013-03-03 21:15:00
3:35 PM,35.6,17.6,48,30.08,10.0,SSE,5.8,-,N/A,,Clear,150,2013-03-03 21:35:00
3:55 PM,35.1,14.7,43,30.08,10.0,SSE,4.6,-,N/A,,Clear,160,2013-03-03 21:55:00
4:15 PM,34.9,14.7,44,30.08,10.0,South,3.5,-,N/A,,Clear,180,2013-03-03 22:15:00
4:35 PM,34.5,14.9,45,30.08,10.0,South,5.8,-,N/A,,Clear,180,2013-03-03 22:35:00
4:55 PM,34.0,14.7,45,30.08,10.0,South,4.6,-,N/A,,Clear,180,2013-03-03 22:55:00
5:15 PM,33.6,13.8,44,30.07,10.0,SE,4.6,-,N/A,,Clear,140,2013-03-03 23:15:00
5:35 PM,32.0,18.9,58,30.08,10.0,ESE,3.5,-,N/A,,Clear,110,2013-03-03 23:35:00
5:55 PM,30.7,22.8,72,30.07,10.0,East,4.6,-,N/A,,Clear,90,2013-03-03 23:55:00
6:15 PM,30.2,23.0,75,30.08,10.0,East,4.6,-,N/A,,Clear,90,2013-03-04 00:15:00
6:35 PM,30.0,21.2,70,30.08,10.0,East,3.5,-,N/A,,Clear,80,2013-03-04 00:35:00
6:55 PM,29.7,21.7,72,30.08,10.0,East,5.8,-,N/A,,Clear,80,2013-03-04 00:55:00
7:15 PM,29.3,21.6,73,30.08,10.0,East,3.5,-,N/A,,Clear,80,2013-03-04 01:15:00
7:35 PM,28.9,21.6,74,30.08,10.0,East,3.5,-,N/A,,Clear,80,2013-03-04 01:35:00
7:55 PM,28.6,20.3,71,30.08,10.0,East,4.6,-,N/A,,Clear,90,2013-03-04 01:55:00
8:15 PM,28.4,20.5,72,30.08,10.0,East,5.8,-,N/A,,Clear,100,2013-03-04 02:15:00
8:35 PM,28.4,20.3,72,30.08,10.0,ESE,4.6,-,N/A,,Clear,110,2013-03-04 02:35:00
8:55 PM,28.4,21.0,74,30.08,10.0,Calm,Calm,-,N/A,,Clear,0,2013-03-04 02:55:00
9:15 PM,28.9,20.1,70,30.08,10.0,ESE,4.6,-,N/A,,Clear,110,2013-03-04 03:15:00
9:35 PM,29.1,19.9,69,30.09,10.0,East,5.8,-,N/A,,Clear,100,2013-03-04 03:35:00
9:55 PM,28.9,21.7,74,30.09,10.0,East,4.6,-,N/A,,Clear,90,2013-03-04 03:55:00
10:15 PM,28.4,21.6,76,30.08,10.0,East,6.9,-,N/A,,Clear,100,2013-03-04 04:15:00
10:35 PM,28.8,21.9,76,30.08,10.0,East,5.8,-,N/A,,Clear,100,2013-03-04 04:35:00
10:55 PM,29.1,22.1,75,30.08,10.0,East,6.9,-,N/A,,Clear,90,2013-03-04 04:55:00
11:15 PM,29.1,21.4,73,30.08,10.0,East,6.9,-,N/A,,Clear,90,2013-03-04 05:15:00
11:35 PM,29.3,20.5,70,30.08,10.0,ESE,8.1,-,N/A,,Clear,110,2013-03-04 05:35:00
11:55 PM,29.3,20.3,69,30.07,10.0,East,9.2,-,N/A,,Clear,100,2013-03-04 05:55:00